カタログに戻る

FENGYUN 1C DEB

運用中PO
NORAD 36675·DEBRIS·🇨🇳 China

打ち上げ May 10, 1999 から Taiyuan Satellite Launch Center

Loading…

次のパス (今後24時間)

TLE

経年Source: Space-Track

元期: Sep 5, 2026, 21:13 UTC

1 36675U 99025DYV 26248.88419883  .00002827  00000-0  78396-3 0  9998
2 36675  99.2299 271.9037 0026679  60.1183 300.2653 14.47241259710878

AllMySatでFENGYUN 1C DEBをリアルタイム追跡

Download on the App Store